This is the latest recevied weather packets stored in our database for station/object KD7CTY. If no packets are shown the sender has not sent any weather packets the latest 10 day(s).
| Time | Temp. | Humidity | Pressure | Rain* | Wind** | Luminosity | Snow |
|---|---|---|---|---|---|---|---|
| 1777631684 | 11.11° C | 85% | 1015.2 hPa | 0 mm | - | 0 W/m² | - |
| 1777631381 | 11.11° C | 84% | 1015.4 hPa | 0 mm | - | 0 W/m² | - |
| 1777631077 | 11.11° C | 84% | 1015.5 hPa | 0 mm | - | 0 W/m² | - |
| 1777630774 | 11.67° C | 84% | 1015.4 hPa | 0 mm | - | 0 W/m² | - |
| 1777630471 | 11.67° C | 84% | 1015.2 hPa | 0 mm | - | 0 W/m² | - |
| 1777630167 | 11.67° C | 84% | 1015.4 hPa | 0 mm | - | 0 W/m² | - |
| 1777629866 | 11.67° C | 84% | 1015.4 hPa | 0 mm | - | 0 W/m² | - |
| 1777629562 | 11.11° C | 85% | 1015.3 hPa | 0 mm | - | 0 W/m² | - |
| 1777629259 | 11.11° C | 85% | 1015.3 hPa | 0 mm | - | 0 W/m² | - |
| 1777628954 | 11.67° C | 84% | 1015.2 hPa | 0 mm | - | 0 W/m² | - |
| 1777628652 | 11.67° C | 84% | 1015.6 hPa | 0 mm | - | 0 W/m² | - |
| 1777628348 | 11.67° C | 84% | 1015.3 hPa | 0 mm | - | 0 W/m² | - |
| 1777628043 | 11.67° C | 84% | 1015.4 hPa | 0 mm | - | 0 W/m² | - |
| 1777627743 | 11.67° C | 82% | 1015.3 hPa | 0 mm | - | 0 W/m² | - |
| 1777627443 | 12.22° C | 82% | 1015.3 hPa | 0 mm | - | 0 W/m² | - |
| 1777627139 | 12.22° C | 82% | 1015.6 hPa | 0 mm | - | 0 W/m² | - |
| 1777626835 | 12.78° C | 80% | 1015.4 hPa | 0 mm | - | 0 W/m² | - |
| 1777626531 | 12.78° C | 80% | 1015.4 hPa | 0 mm | - | 0 W/m² | - |
| 1777626226 | 12.78° C | 79% | 1015.3 hPa | 0 mm | - | 0 W/m² | - |
| 1777625924 | 12.78° C | 79% | 1015.3 hPa | 0 mm | - | 0 W/m² | - |
| 1777625621 | 12.78° C | 79% | 1015.4 hPa | 0 mm | - | 0 W/m² | - |
| 1777625316 | 12.78° C | 80% | 1015.5 hPa | 0 mm | - | 0 W/m² | - |
| 1777625013 | 12.78° C | 80% | 1015.3 hPa | 0 mm | - | 0 W/m² | - |
| 1777624710 | 12.78° C | 81% | 1015.5 hPa | 0 mm | - | 0 W/m² | - |
| 1777624406 | 12.22° C | 82% | 1015.4 hPa | 0 mm | - | 0 W/m² | - |
* Rain latest hour (hover to see other rain measurements)
** Current wind speed in m/s (hover to see current wind gust speed)